This demonstration page uses our WeatherBlox Daily Observations layout. Learn more.

Left ArrowRight Arrow

Hourly Observations for May 17, 2018

Temp ( °F °C ) Dew Point ( °F °C ) Humidity (%) Winds ( mph kmh ) Pressure ( in mb ) Visibility ( mi km ) Precip ( " mm )
12:51 am 00:51 Clear 71 21.7 13 -10.6 10 10 WNW 7 11 29.70 1006 10 16 0.00 0.00
1:51 am 01:51 Clear 72 22.2 14 -10 11 11 NW 9 15 29.70 1006 10 16 0.00 0.00
2:51 am 02:51 Clear 69 20.6 14 -10 12 12 NNW 6 9 29.70 1006 10 16 0.00 0.00
3:51 am 03:51 Clear 62 16.7 13 -10.6 14 14 SSE 7 11 29.72 1007 10 16 0.00 0.00
4:51 am 04:51 Clear 60 15.6 13 -10.6 16 16 SE 6 9 29.73 1007 10 16 0.00 0.00
5:51 am 05:51 Sunny 60 15.6 13 -10.6 16 16 E 3 6 29.75 1008 10 16 0.00 0.00
6:51 am 06:51 Sunny 66 18.9 14 -10 13 13 SE 7 11 29.76 1008 10 16 0.00 0.00
7:51 am 07:51 Sunny 73 22.8 15 -9.4 11 11 VRB 5 7 29.77 1008 10 16 0.00 0.00
8:51 am 08:51 Sunny 78 25.6 16 -8.9 9 9 S 3 6 29.76 1008 10 16 0.00 0.00
9:51 am 09:51 Sunny 85 29.4 16 -8.9 7 7 VRB 5 7 29.74 1007 10 16 0.00 0.00
10:51 am 10:51 Sunny 86 30 14 -10 7 7 Calm 29.72 1007 10 16 0.00 0.00
11:51 am 11:51 Sunny 89 31.7 12 -11.1 5 5 VRB 3 6 29.71 1006 10 16 0.00 0.00
12:51 pm 12:51 Sunny 92 33.3 10 -12.2 5 5 VRB 5 7 29.68 1005 10 16 0.00 0.00
1:51 pm 13:51 Sunny 94 34.4 9 -12.8 4 4 WSW 8 13 29.65 1004 10 16 0.00 0.00
2:51 pm 14:51 Sunny 96 35.6 3 -16.1 3 3 undefined N/A 29.62 1003 10 16 0.00 0.00
3:51 pm 15:51 Sunny 98 36.7 -4 -20 2 2 W 22 35 29.60 1002 10 16 0.00 0.00
3:59 pm 15:59 Sunny 97 36.1 -5 -20.6 2 2 W 23 37 29.47 998 10 16 0.00 0.00
4:51 pm 16:51 Sunny 96 35.6 -2 -18.9 2 2 W 20 31 29.60 1003 10 16 0.00 0.00
5:51 pm 17:51 Sunny 92 33.3 -1 -18.3 3 3 W 17 28 29.61 1003 10 16 0.00 0.00
6:51 pm 18:51 Sunny 88 31.1 5 -15 4 4 WNW 18 30 29.62 1003 10 16 0.00 0.00
7:51 pm 19:51 Clear 83 28.3 12 -11.1 7 7 WNW 13 20 29.63 1003 10 16 0.00 0.00
8:51 pm 20:51 Clear 80 26.7 13 -10.6 8 8 NW 12 19 29.65 1004 10 16 0.00 0.00
9:51 pm 21:51 Clear 76 24.4 14 -10 9 9 NW 13 20 29.65 1004 10 16 0.00 0.00
10:51 pm 22:51 Clear 76 24.4 16 -8.9 10 10 NW 14 22 29.65 1004 10 16 0.00 0.00
11:51 pm 23:51 Clear 75 23.9 22 -5.6 14 14 NW 13 20 29.66 1004 10 16 0.00 0.00

Powered by AerisWeather